KLM678 CYYC-EHAM

Flight info

Callsign KLM678
Flight time N/A
Altitude 33000
Route LOMLO DCT PERTU Q961 TULOV DCT MEETO DCT 56N100W 5830N09000W/N0491F350 5930N08000W DCT TUNNI DCT MIBNO/M084F350 DCT NIFTY DCT 61N050W 6030N04000W 5930N03000W 58N020W DCT SUNOT/N0479F350 DCT KESIX DCT MIMKU DCT BELOX L603 LAMSO
Aircraft B772/H-SDE2E3FGHIJ5LORVWXY/LB1D1

Departure

Time N/A
Airport Calgary International Airport (CYYC)

Arrival

Time 2026-05-04 00:49
Airport Amsterdam Airport Schiphol (EHAM)
Time Latitude Longitude Altitude Speed Heading
2026-05-04 00:16 53.49546 -1.71287 37006 ft 494 kts 107°
2026-05-04 00:16 53.35152 -0.91455 36961 ft 494 kts 108°
2026-05-04 00:17 53.18515 -0.03773 36955 ft 496 kts 110°
2026-05-04 00:17 53.01220 0.83750 36944 ft 498 kts 111°
2026-05-04 00:18 52.95473 1.18256 36953 ft 504 kts 101°
2026-05-04 00:18 52.94370 1.29729 36942 ft 503 kts 102°
2026-05-04 00:19 52.93129 1.41149 36939 ft 503 kts 103°
2026-05-04 00:19 52.91873 1.51764 36939 ft 503 kts 104°
2026-05-04 00:20 52.90507 1.63046 36937 ft 503 kts 104°
2026-05-04 00:20 52.89128 1.74403 36945 ft 503 kts 104°
2026-05-04 00:21 52.87750 1.85717 36623 ft 497 kts 104°
2026-05-04 00:21 52.87068 1.91296 36021 ft 493 kts 104°
2026-05-04 00:21 52.86609 1.95032 35618 ft 490 kts 104°
2026-05-04 00:22 52.85702 2.02383 34884 ft 484 kts 105°
2026-05-04 00:22 52.85255 2.05988 34555 ft 481 kts 105°
2026-05-04 00:22 52.84366 2.13130 33912 ft 475 kts 105°
2026-05-04 00:22 52.83698 2.18468 33372 ft 470 kts 105°
2026-05-04 00:23 52.83251 2.22027 33022 ft 467 kts 105°
2026-05-04 00:23 52.82597 2.27216 32238 ft 468 kts 105°
2026-05-04 00:23 52.81928 2.32492 31405 ft 470 kts 105°
2026-05-04 00:23 52.81257 2.37782 30687 ft 469 kts 105°
2026-05-04 00:24 52.80589 2.43043 29978 ft 468 kts 105°
2026-05-04 00:24 52.79915 2.48322 28929 ft 471 kts 105°
2026-05-04 00:24 52.79233 2.53626 27953 ft 472 kts 105°
2026-05-04 00:24 52.78547 2.58928 27064 ft 472 kts 105°
2026-05-04 00:25 52.77858 2.64237 26182 ft 471 kts 105°
2026-05-04 00:25 52.77122 2.69505 25346 ft 469 kts 108°
2026-05-04 00:25 52.76212 2.74638 24591 ft 465 kts 110°
2026-05-04 00:25 52.75254 2.79724 23727 ft 464 kts 110°
2026-05-04 00:26 52.74276 2.84822 22664 ft 466 kts 110°
2026-05-04 00:26 52.73295 2.89918 21604 ft 467 kts 110°
2026-05-04 00:26 52.72317 2.95015 20739 ft 463 kts 110°
2026-05-04 00:26 52.71354 3.00064 19980 ft 458 kts 110°
2026-05-04 00:27 52.70417 3.04987 19255 ft 453 kts 110°
2026-05-04 00:27 52.69475 3.09935 18529 ft 449 kts 110°
2026-05-04 00:27 52.68545 3.14813 17758 ft 445 kts 110°
2026-05-04 00:27 52.67633 3.19587 16928 ft 422 kts 110°
2026-05-04 00:28 52.66780 3.24057 16122 ft 398 kts 110°
2026-05-04 00:28 52.65943 3.28409 15250 ft 394 kts 110°
2026-05-04 00:28 52.65129 3.32631 14259 ft 379 kts 109°
2026-05-04 00:28 52.64344 3.36694 13256 ft 366 kts 109°
2026-05-04 00:29 52.63582 3.40631 12229 ft 361 kts 109°
2026-05-04 00:29 52.62801 3.44639 11250 ft 374 kts 109°
2026-05-04 00:29 52.61994 3.48777 10277 ft 385 kts 109°
2026-05-04 00:29 52.61170 3.52999 9543 ft 388 kts 109°
2026-05-04 00:30 52.60361 3.57146 9008 ft 383 kts 109°
2026-05-04 00:30 52.59553 3.61283 8498 ft 378 kts 109°
2026-05-04 00:30 52.58757 3.65348 8154 ft 369 kts 109°
2026-05-04 00:30 52.57979 3.69317 7878 ft 358 kts 109°
2026-05-04 00:31 52.57223 3.73159 7609 ft 348 kts 109°
2026-05-04 00:31 52.56488 3.76888 7373 ft 339 kts 109°
2026-05-04 00:31 52.55768 3.80529 7112 ft 330 kts 109°
2026-05-04 00:31 52.55067 3.84075 6848 ft 323 kts 109°
2026-05-04 00:32 52.54381 3.87539 6598 ft 316 kts 109°
2026-05-04 00:32 52.53705 3.90940 6354 ft 309 kts 109°
2026-05-04 00:32 52.53043 3.94266 6086 ft 304 kts 109°
2026-05-04 00:32 52.52396 3.97535 5815 ft 298 kts 108°
2026-05-04 00:33 52.51803 4.00765 5559 ft 293 kts 107°
2026-05-04 00:33 52.50677 4.07108 5038 ft 285 kts 107°
2026-05-04 00:33 52.50127 4.10208 4780 ft 281 kts 107°
2026-05-04 00:34 52.49581 4.13266 4525 ft 277 kts 107°
2026-05-04 00:34 52.49040 4.16293 4255 ft 274 kts 107°
2026-05-04 00:34 52.48512 4.19233 4000 ft 271 kts 107°
2026-05-04 00:34 52.47981 4.22179 3746 ft 268 kts 107°
2026-05-04 00:35 52.47455 4.25093 3485 ft 265 kts 107°
2026-05-04 00:35 52.46935 4.27969 3244 ft 262 kts 107°
2026-05-04 00:35 52.46424 4.30791 3118 ft 253 kts 107°
2026-05-04 00:35 52.45932 4.33503 3015 ft 244 kts 107°
2026-05-04 00:36 52.45456 4.36125 2910 ft 235 kts 107°
2026-05-04 00:36 52.44998 4.38642 2810 ft 227 kts 107°
2026-05-04 00:36 52.44549 4.41104 2732 ft 224 kts 107°
2026-05-04 00:36 52.44106 4.43528 2702 ft 221 kts 107°
2026-05-04 00:37 52.43663 4.45953 2674 ft 221 kts 107°
2026-05-04 00:37 52.43231 4.48315 2570 ft 211 kts 107°
2026-05-04 00:37 52.42816 4.50581 2517 ft 206 kts 107°
2026-05-04 00:37 52.42407 4.52810 2505 ft 202 kts 107°
2026-05-04 00:38 52.41999 4.55030 2519 ft 205 kts 107°
2026-05-04 00:38 52.41591 4.57248 2483 ft 205 kts 108°
2026-05-04 00:38 52.41179 4.59485 2461 ft 205 kts 108°
2026-05-04 00:38 52.40765 4.61726 2429 ft 206 kts 108°
2026-05-04 00:39 52.40352 4.63964 2412 ft 204 kts 108°
2026-05-04 00:39 52.40032 4.66234 2364 ft 206 kts 90°
2026-05-04 00:39 52.40214 4.68554 2347 ft 205 kts 84°
2026-05-04 00:39 52.40315 4.70899 2343 ft 207 kts 85°
2026-05-04 00:40 52.40422 4.73220 2314 ft 206 kts 85°
2026-05-04 00:40 52.40534 4.75560 2287 ft 206 kts 85°
2026-05-04 00:40 52.40647 4.77902 2259 ft 206 kts 85°
2026-05-04 00:40 52.40761 4.80240 2237 ft 205 kts 85°
2026-05-04 00:41 52.40876 4.82580 2201 ft 206 kts 85°
2026-05-04 00:41 52.40991 4.84919 2177 ft 206 kts 85°
2026-05-04 00:41 52.41108 4.87259 2160 ft 206 kts 85°
2026-05-04 00:41 52.41224 4.89605 2130 ft 206 kts 85°
2026-05-04 00:42 52.41340 4.91945 2110 ft 206 kts 85°
2026-05-04 00:42 52.41455 4.94282 2088 ft 206 kts 85°
2026-05-04 00:42 52.41569 4.96631 2054 ft 207 kts 85°
2026-05-04 00:42 52.41684 4.98973 2040 ft 206 kts 85°
2026-05-04 00:43 52.41799 5.01315 2008 ft 206 kts 85°
2026-05-04 00:43 52.41912 5.03647 1982 ft 204 kts 87°
2026-05-04 00:43 52.41659 5.05896 1907 ft 204 kts 124°
2026-05-04 00:43 52.40557 5.07192 1886 ft 197 kts 172°
2026-05-04 00:44 52.39241 5.06936 1896 ft 191 kts 198°
2026-05-04 00:44 52.37951 5.06435 1889 ft 194 kts 194°
2026-05-04 00:44 52.36623 5.06056 1855 ft 193 kts 192°
2026-05-04 00:44 52.35296 5.05740 1820 ft 193 kts 190°
2026-05-04 00:45 52.33995 5.05292 1764 ft 190 kts 208°
2026-05-04 00:45 52.33013 5.03917 1750 ft 187 kts 236°
2026-05-04 00:45 52.32550 5.01975 1712 ft 184 kts 262°
2026-05-04 00:45 52.32457 4.99897 1726 ft 184 kts 267°
2026-05-04 00:46 52.32398 4.97860 1659 ft 169 kts 266°
2026-05-04 00:46 52.32351 4.96051 1554 ft 151 kts 267°
2026-05-04 00:46 52.32307 4.94425 1512 ft 137 kts 267°
2026-05-04 00:46 52.32274 4.92884 1540 ft 134 kts 267°
2026-05-04 00:47 52.32231 4.91357 1435 ft 138 kts 266°
2026-05-04 00:47 52.32180 4.89799 1248 ft 136 kts 266°
2026-05-04 00:47 52.32128 4.88254 1064 ft 136 kts 267°
2026-05-04 00:47 52.32076 4.86716 867 ft 137 kts 266°
2026-05-04 00:48 52.32023 4.85153 689 ft 139 kts 266°
2026-05-04 00:48 52.31969 4.83577 493 ft 139 kts 266°
2026-05-04 00:48 52.31918 4.82034 313 ft 136 kts 265°
2026-05-04 00:48 52.31864 4.80484 115 ft 136 kts 266°
2026-05-04 00:49 52.31814 4.78947 8 ft 130 kts 265°
2026-05-04 00:49 52.31768 4.77654 1 ft 94 kts 266°
2026-05-04 00:49 52.31740 4.76837 1 ft 54 kts 267°
2026-05-04 00:49 52.31711 4.76304 4 ft 35 kts 256°
2026-05-04 00:50 52.31616 4.76022 4 ft 24 kts 220°
2026-05-04 00:50 52.31536 4.76137 2 ft 20 kts 88°
2026-05-04 00:50 52.31544 4.76362 2 ft 20 kts 86°
2026-05-04 00:50 52.31553 4.76587 2 ft 20 kts 86°
2026-05-04 00:51 52.31561 4.76812 2 ft 20 kts 86°
2026-05-04 00:51 52.31567 4.77037 2 ft 20 kts 88°
2026-05-04 00:51 52.31574 4.77262 2 ft 20 kts 86°
2026-05-04 00:51 52.31555 4.77481 2 ft 21 kts 120°
2026-05-04 00:52 52.31389 4.77656 2 ft 34 kts 179°
2026-05-04 00:52 52.31164 4.77635 2 ft 31 kts 183°
2026-05-04 00:52 52.30957 4.77616 2 ft 30 kts 183°
2026-05-04 00:52 52.30749 4.77596 2 ft 30 kts 183°
2026-05-04 00:53 52.30572 4.77492 2 ft 28 kts 227°
2026-05-04 00:53 52.30469 4.77225 2 ft 28 kts 238°
2026-05-04 00:53 52.30364 4.76958 2 ft 28 kts 237°
2026-05-04 00:53 52.30326 4.76703 3 ft 23 kts 291°
2026-05-04 00:54 52.30384 4.76555 2 ft 14 kts 325°
2026-05-04 00:54 52.30461 4.76466 2 ft 14 kts 325°
2026-05-04 00:54 52.30537 4.76379 2 ft 13 kts 325°
2026-05-04 00:54 52.30579 4.76387 2 ft 4 kts 55°
2026-05-04 00:55 52.30595 4.76424 2 ft 4 kts 55°
2026-05-04 00:55 52.30598 4.76432 2 ft 0 kts 55°